Regional Weather Roundup
Issued by NWS Northern Indiana

Home | Current Version | Previous Version | Graphics & Text | Print | Product List | Glossary On
Versions: 1 2 3 4 5 6 7 8 9 10 11 12 13 14 15 16 17 18 19 20 21 22 23 24 25 26 27 28 29 30 31 32 33 34 35 36 37 38 39 40 41 42 43 44 45 46 47 48 49 50
000
ASUS43 KIWX 220200
RWRIWX

KIWX WEATHER ROUNDUP
NATIONAL WEATHER SERVICE NORTHERN INDIANA
1000 PM EDT SAT APR 21 2018

NOTE: "FAIR" INDICATES FEW OR NO CLOUDS BELOW 12,000 FEET WITH NO
SIGNIFICANT WEATHER AND/OR OBSTRUCTIONS TO VISIBILITY.

* THESE STATIONS ARE NOT UNDER NWS QUALITY CONTROL. THEY ALSO MAY NOT
  REPORT WEATHER SUCH AS PRECIPITATION OR FOG.

INZ001>027-220300-
NORTHERN INDIANA

CITY           SKY/WX    TMP DP  RH WIND       PRES   REMARKS
GARY*          CLOUDY    45  25  45 NE5       30.39R
KNOX*          FAIR      48  32  53 CALM      30.35S
SOUTH BEND     FAIR      46  32  58 N5        30.37S
GOSHEN         FAIR      51  29  42 SE5       30.36S
MONTICELLO*    FAIR      51  25  36 CALM      30.36R
ROCHESTER*     FAIR      50  32  50 E7        30.36S
WARSAW*        FAIR      46  30  53 E7        30.36F
FORT WAYNE     CLOUDY    48  31  51 E6        30.38R
PERU/GRISSOM   CLOUDY    50  23  34 E6        30.35S

$$
INZ028>050-220300-
CENTRAL INDIANA

CITY           SKY/WX    TMP DP  RH WIND       PRES   REMARKS
LAFAYETTE      FAIR      52  26  36 E12       30.33R
KOKOMO*        FAIR      49  30  48 E7        30.35S
MUNCIE*        FAIR      51  28  41 E7        30.35S
INDIANAPOLIS   CLOUDY    55  21  26 E9        30.33R

$$
MIZ043>046-050>051-056>058-064>065-071>073-077>080-220300-
SOUTHWEST LOWER MICHIGAN

CITY           SKY/WX    TMP DP  RH WIND       PRES   REMARKS
BATTLE CREEK   FAIR      51  26  37 SE6       30.38R
BENTON HARBOR  CLOUDY    46  25  43 CALM      30.37S
COLDWATER*     CLOUDY    51  26  37 SE3       30.38R
HILLSDALE*     FAIR      46  27  46 SE6       30.38R
HOLLAND        FAIR      41  23  48 CALM      30.39R
GRAND RAPIDS   MOCLDY    50  21  32 W3        30.38R
KALAMAZOO      FAIR      54  23  30 CALM      30.38R
STURGIS*       CLOUDY    52  28  39 S3        30.37R

$$
OHZ001>008-015>018-024>025-220300-
NORTHWEST OHIO

CITY           SKY/WX    TMP DP  RH WIND       PRES   REMARKS
WAUSEON*       CLOUDY    48  23  37 E8        30.39S
DEFIANCE       FAIR      49  23  36 E8        30.40R
FINDLAY        FAIR      48  18  30 NE8       30.38R
TOLEDO EXPRESS FAIR      46  19  34 E5        30.40S
TOLEDO METCALF FAIR      45  22  40 NE5       30.41S
LIMA           FAIR      47  24  40 NE8       30.38R

$$
AND FOR LAKE MICHIGAN COASTAL AND OPEN LAKE BUOY OBSERVATIONS

STATION/POSITION TEMP    WIND        PRES    VSBY  WAVE
                 AIR SEA DIR/SP/G                  HT/PER
                 (F)     (DEG/KT/KT) (MB)    (MI)  (FT/S)
CALUMET HARBOR    41      10/  3/  4 1027.9R
MICHIGAN CITY     41      30/  8/  9   N/A
BURNS HARBOR      42      60/  8/  9 1029.1R
SAINT JOSEPH      44      20/  4/  8 1029.1

$$
&&



USA.gov is the U.S. government's official web portal to all federal, state and local government web resources and services.